Regional Weather Roundup
Issued by NWS

Home | Current Version | Previous Version | Graphics & Text | Print | Product List | Glossary On
Versions: 1 2 3 4 5 6 7 8 9 10 11 12 13 14 15 16 17 18 19 20 21 22 23 24 25 26 27 28 29 30 31 32 33 34 35 36 37 38 39 40 41 42 43 44 45 46 47 48 49 50
000
ASUS43 KLSX 031659
RWRMO

WEATHER SUMMARY FOR MISSOURI
NATIONAL WEATHER SERVICE SPRINGFIELD MO
1100 AM CST TUE MAR 03 2015

NOTE: "FAIR" INDICATES FEW OR NO CLOUDS BELOW 12,000 FEET WITH NO
       SIGNIFICANT WEATHER AND/OR OBSTRUCTIONS TO VISIBILITY.
       CURRENT SKY AND/OR WEATHER CONDITIONS ARE NOT AVAILABLE FOR
       CHILLICOTHE AND FARMINGTON.

MOZ001>031-035>038-043-044-053-054-031800-
...NORTHERN AND WESTERN MISSOURI...

CITY           SKY/WX    TMP DP  RH WIND       PRES   REMARKS
KANSAS CTY INT CLOUDY    43  39  86 SW10      29.76R
KANSAS C DTWN  CLOUDY    45  38  76 W13       29.77R
LEE`S SUMMIT   CLOUDY    42  39  89 SW16G28   29.77R
ST JOSEPH      CLOUDY    43  37  79 W15G23    29.77R
CHILLICOTHE      N/A     41  38  89 SW7       29.76R
KIRKSVILLE     CLOUDY    37  37 100 SW7       29.73S FOG

$$
MOZ066>068-077>081-088>096-101>105-031800-
...SOUTHWEST MISSOURI...

CITY           SKY/WX    TMP DP  RH WIND       PRES   REMARKS
SPRINGFIELD    CLOUDY    46  44  93 SW18      29.84R
JOPLIN         CLOUDY    47  43  86 SW23G30   29.85R

$$
MOZ032>034-039>042-045>050-055>058-069>072-031800-
...CENTRAL MISSOURI...

CITY           SKY/WX    TMP DP  RH WIND       PRES   REMARKS
COLUMBIA       CLOUDY    43  40  89 SW16      29.78R
JEFFERSON CITY CLOUDY    44  39  82 VRB3      29.80R
ROLLA          CLOUDY    44  42  93 SW14G23   29.78R
SEDALIA        CLOUDY    42  38  85 SW17G25   29.79R
OSAGE BEACH    CLOUDY    48  43  81 SW12G21   29.80R

$$
MOZ051-052-059>065-031800-
...EAST CENTRAL MISSOURI...

CITY           SKY/WX    TMP DP  RH WIND       PRES   REMARKS
ST LOUIS INTL  CLOUDY    46  41  82 SW9       29.78F
SPIRIT OF STL  CLOUDY    48  44  86 SW16G22   29.77S
ST CHARLES     CLOUDY    38  36  92 CALM      29.78F FOG

$$
MOZ072>076-082>087-097>100-106>115-031800-
...SOUTH CENTRAL AND SOUTHEAST MISSOURI...

CITY           SKY/WX    TMP DP  RH WIND       PRES   REMARKS
CAPE GIRARDEAU FOG       37  37 100 SW13      29.96F VSB 1/2 WCI  29
FARMINGTON     CLOUDY    39  37  93 S12G18    29.89S
POPLAR BLUFF   CLOUDY    37  34  89 SW13      29.96F FOG     WCI  29
WEST PLAINS    CLOUDY    43  41  93 SW12      29.90F FOG

$$



USA.gov is the U.S. government's official web portal to all federal, state and local government web resources and services.